Content
SEND FEEDBACK

Daily
Averages
Monthly
Summary
United States of America

CRESTED BUTTE, COLORADO


Home > North America > United States > Colorado
Elevation: 9277 feet     Latitude: 38 52N     Longitude: 106 58W

WEATHER
 
SELECT A DAY
Number of Records: 459,260;   Date Range: 1/1/95 - 12/26/14
 
SHARE

PRINT THIS DATA

[ ← Previous Day ]
WEATHER ALMANAC - APRIL 7, 2014
[ Next Day → ]
[ °C ]   °F
Weather ElementAverageHighLow
Temperature35.7 °F46.4 °F (3:35 pm)23 °F (6:35 am)
Dewpoint17.4 °F24.8 °F (12:35 am)10.4 °F (2:35 pm)
Humidity52.3 %86 % (3:55 am)23 % (3:35 pm)
Barometer30.23 in30.36 in (11:35 pm)30.09 in (12:35 am)
Wind Speed7.1 mph18.4 mph (11:15 am)
Wind Gust27.6 mph (1:15 pm)
Weather ElementAverage
Visibility10 mi
Wind DirectionS (181.1 °)

Weather ElementTotal
Precipitation---
Heating Degree Days30.3 (Base 65)
Averaged from 70 records on April 7, 2014
WEATHER CONDITIONS BREAKOUT
WIND DIRECTION BREAKOUT
WEATHER BY HOUR - APRIL 7, 2014
[ °C ]   °F
Local TimeTemperatureDewpointHumidityBarometerVisibilityWind DirectionWind SpeedGust SpeedPrecipitationEventsConditions
12:35 AM30.2 °F24.8 °F80 %30.09 in10.0 miCalmClear
12:55 AM28.4 °F21.2 °F74 %30.09 in10.0 miSouth (180°)4.6 mphClear
1:15 AM28.4 °F21.2 °F74 %30.10 in10.0 miCalmClear
1:35 AM28.4 °F23.0 °F80 %30.10 in10.0 miCalmClear
1:55 AM30.2 °F23.0 °F75 %30.10 in10.0 miNNE (30°)4.6 mphPartly Cloudy
2:15 AM28.4 °F23.0 °F80 %30.10 in10.0 miCalmClear
2:35 AM26.6 °F21.2 °F80 %30.10 in10.0 miCalmScattered Clouds
2:55 AM26.6 °F21.2 °F80 %30.11 in10.0 miCalmMostly Cloudy
3:15 AM26.6 °F21.2 °F80 %30.11 in10.0 miSSE (160°)4.6 mphScattered Clouds
3:35 AM28.4 °F23.0 °F80 %30.11 in10.0 miWest (260°)3.5 mphScattered Clouds
3:55 AM28.4 °F24.8 °F86 %30.11 in10.0 miSW (230°)3.5 mphScattered Clouds
4:15 AM26.6 °F21.2 °F80 %30.12 in10.0 miNNW (330°)6.9 mphClear
4:35 AM24.8 °F19.4 °F80 %30.12 in10.0 miCalmClear
4:55 AM24.8 °F19.4 °F80 %30.13 in10.0 miNW (320°)6.9 mphClear
5:15 AM24.8 °F19.4 °F80 %30.13 in10.0 miNorth (350°)8.1 mphClear
5:35 AM24.8 °F19.4 °F80 %30.14 in10.0 miNNW (340°)4.6 mphClear
5:55 AM24.8 °F19.4 °F80 %30.15 in10.0 miCalmClear
6:15 AM24.8 °F17.6 °F74 %30.15 in10.0 miCalmClear
6:35 AM23.0 °F15.8 °F74 %30.16 in10.0 miCalmClear
6:55 AM23.0 °F19.4 °F86 %30.17 in10.0 miCalmClear
7:15 AM23.0 °F17.6 °F80 %30.18 in10.0 miCalmClear
7:35 AM24.8 °F19.4 °F80 %30.20 in10.0 miCalmClear
7:55 AM26.6 °F19.4 °F74 %30.20 in10.0 miENE (60°)3.5 mphClear
8:15 AM28.4 °F21.2 °F74 %30.20 in10.0 miCalmClear
8:35 AM30.2 °F23.0 °F75 %30.20 in10.0 miENE (70°)3.5 mphClear
8:55 AM33.8 °F23.0 °F65 %30.20 in10.0 miNE (40°)3.5 mphClear
9:15 AM35.6 °F21.2 °F56 %30.20 in10.0 miEast (80°)8.1 mphClear
9:35 AM35.6 °F19.4 °F52 %30.22 in10.0 miEast (80°)8.1 mphClear
9:55 AM37.4 °F17.6 °F45 %30.23 in10.0 miEast (80°)6.9 mphPartly Cloudy
10:15 AM39.2 °F17.6 °F42 %30.24 in10.0 miWNW (300°)5.8 mphClear
10:35 AM39.2 °F17.6 °F42 %30.24 in10.0 miNNW (340°)16.1 mph21.9 mphClear
10:55 AM39.2 °F15.8 °F39 %30.25 in10.0 miNorth (10°)13.8 mph18.4 mphClear
11:15 AM41.0 °F15.8 °F36 %30.25 in10.0 miNorth (10°)18.4 mphClear
11:35 AM42.8 °F17.6 °F36 %30.25 in10.0 miNorth (360°)17.3 mph25.3 mphClear
11:55 AM42.8 °F15.8 °F34 %30.25 in10.0 miNorth (360°)15.0 mph25.3 mphClear
12:15 PM42.8 °F15.8 °F34 %30.25 in10.0 miNNW (340°)12.7 mph23.0 mphClear
12:35 PM42.8 °F12.2 °F29 %30.25 in10.0 miNW (320°)12.7 mph21.9 mphClear
12:55 PM42.8 °F12.2 °F29 %30.25 in10.0 miNNW (330°)15.0 mph21.9 mphClear
1:15 PM44.6 °F12.2 °F27 %30.25 in10.0 miNNW (340°)12.7 mph27.6 mphClear
1:35 PM44.6 °F12.2 °F27 %30.25 in10.0 miNNW (330°)15.0 mph21.9 mphClear
2:15 PM44.6 °F12.2 °F27 %30.26 in10.0 miNNW (330°)16.1 mphClear
2:35 PM44.6 °F10.4 °F25 %30.25 in10.0 miNNW (330°)15.0 mph21.9 mphClear
2:55 PM44.6 °F12.2 °F27 %30.25 in10.0 miNorth (350°)11.5 mph19.6 mphClear
3:15 PM44.6 °F10.4 °F25 %30.25 in10.0 miNorth (350°)17.3 mph20.7 mphClear
3:35 PM46.4 °F10.4 °F23 %30.25 in10.0 miNW (320°)15.0 mph20.7 mphClear
3:55 PM46.4 °F12.2 °F25 %30.25 in10.0 miNW (320°)17.3 mph20.7 mphClear
4:15 PM46.4 °F10.4 °F23 %30.25 in10.0 miNorth (350°)12.7 mph19.6 mphClear
4:35 PM46.4 °F12.2 °F25 %30.25 in10.0 miNorth (360°)12.7 mph18.4 mphClear
4:55 PM46.4 °F12.2 °F25 %30.25 in10.0 miWest (270°)15.0 mph23.0 mphPartly Cloudy
5:15 PM46.4 °F15.8 °F29 %30.26 in10.0 miWest (260°)17.3 mph23.0 mphScattered Clouds
5:35 PM44.6 °F15.8 °F31 %30.27 in10.0 miWest (260°)6.9 mphPartly Cloudy
5:55 PM46.4 °F15.8 °F29 %30.27 in10.0 miWNW (300°)9.2 mphPartly Cloudy
6:15 PM46.4 °F15.8 °F29 %30.28 in10.0 miWest (280°)12.7 mph18.4 mphMostly Cloudy
6:35 PM44.6 °F15.8 °F31 %30.29 in10.0 miWest (280°)10.4 mph18.4 mphMostly Cloudy
6:55 PM44.6 °F15.8 °F31 %30.29 in10.0 miWest (280°)10.4 mph16.1 mphScattered Clouds
7:15 PM44.6 °F14.0 °F29 %30.30 in10.0 miWest (260°)10.4 mphPartly Cloudy
7:35 PM42.8 °F14.0 °F31 %30.30 in10.0 miNNW (340°)4.6 mphClear
7:55 PM39.2 °F15.8 °F39 %30.31 in10.0 miNorth (350°)6.9 mphPartly Cloudy
8:15 PM39.2 °F17.6 °F42 %30.32 in10.0 miNNW (330°)5.8 mphScattered Clouds
8:35 PM39.2 °F17.6 °F42 %30.33 in10.0 miCalmMostly Cloudy
8:55 PM37.4 °F17.6 °F45 %30.34 in10.0 miNNW (340°)4.6 mphMostly Cloudy
9:15 PM37.4 °F17.6 °F45 %30.34 in10.0 miNorthMostly Cloudy
9:35 PM37.4 °F17.6 °F45 %30.35 in10.0 miNorth (10°)4.6 mphMostly Cloudy
9:55 PM37.4 °F19.4 °F48 %30.35 in10.0 miNorth (360°)5.8 mphPartly Cloudy
10:15 PM35.6 °F17.6 °F48 %30.35 in10.0 miCalmClear
10:35 PM33.8 °F19.4 °F56 %30.35 in10.0 miNNE (30°)3.5 mphClear
10:55 PM32.0 °F17.6 °F55 %30.35 in10.0 miCalmClear
11:15 PM32.0 °F17.6 °F55 %30.35 in10.0 miCalmPartly Cloudy
11:35 PM30.2 °F17.6 °F60 %30.36 in10.0 miNorth (360°)4.6 mphPartly Cloudy
11:55 PM30.2 °F17.6 °F60 %30.36 in10.0 miNorth (10°)3.5 mphPartly Cloudy
Hourly data recorded from KGUC, located miles away from Crested Butte, Colorado







STORIES FROM OUR PARTNERS